contact:dominique.lefevre@mio.osupytheas.fr, maurice.libes@osupytheas.fr, didier.mallarino@osupytheas.fr
Project:EMSO http://www.emso-fr.org/EMSO-France
Depth: 2436.0 m
Title:EMSO Ligure Ouest : Data MII capteur CSTAR
DateTime,Latitude,Longitude,Instrument_Serial,Reference_Counts,Signal_Counts,Corrected_Signal_raw_counts,Calculated_Beam_c_inverse_meters,Internal_thermistor_counts
DateTime,Latitude,Longitude,Instrument_Serial,Reference_Counts,Signal_Counts,Corrected_Signal_raw_counts,Calculated_Beam_c_inverse_meters,Internal_thermistor_counts
2023-07-29T00:02:24,42.805,6.029,CST-1368DR,4230,4612,11567,01.201,552
2023-07-29T00:05:26,42.805,6.029,CST-1368DR,4230,4610,11563,01.202,552
2023-07-29T00:08:27,42.805,6.029,CST-1368DR,4229,4612,11569,01.200,552
2023-07-29T00:11:29,42.805,6.029,CST-1368DR,4229,4612,11569,01.200,552
2023-07-29T00:14:31,42.805,6.029,CST-1368DR,4229,4611,11567,01.201,552
2023-07-29T00:17:32,42.805,6.029,CST-1368DR,4229,4610,11566,01.201,552
2023-07-29T00:20:34,42.805,6.029,CST-1368DR,4230,4610,11563,01.202,552
2023-07-29T00:23:35,42.805,6.029,CST-1368DR,4229,4613,11572,01.199,552
2023-07-29T00:26:37,42.805,6.029,CST-1368DR,4229,4612,11569,01.200,552
2023-07-29T00:29:38,42.805,6.029,CST-1368DR,4230,4611,11565,01.201,552
2023-07-29T00:32:40,42.805,6.029,CST-1368DR,4229,4609,11563,01.202,552
2023-07-29T00:35:42,42.805,6.029,CST-1368DR,4229,4612,11569,01.200,552
2023-07-29T00:38:43,42.805,6.029,CST-1368DR,4229,4611,11568,01.200,552
2023-07-29T00:41:45,42.805,6.029,CST-1368DR,4229,4611,11569,01.200,552
2023-07-29T00:44:46,42.805,6.029,CST-1368DR,4229,4612,11570,01.200,552
2023-07-29T00:47:48,42.805,6.029,CST-1368DR,4230,4612,11567,01.201,552
2023-07-29T00:50:50,42.805,6.029,CST-1368DR,4229,4611,11567,01.201,552
2023-07-29T00:53:51,42.805,6.029,CST-1368DR,4229,4611,11569,01.200,552
2023-07-29T00:56:53,42.805,6.029,CST-1368DR,4229,4612,11570,01.200,552
2023-07-29T00:59:54,42.805,6.029,CST-1368DR,4229,4613,11572,01.199,552
2023-07-29T01:02:56,42.805,6.029,CST-1368DR,4229,4610,11566,01.201,552
2023-07-29T01:05:57,42.805,6.029,CST-1368DR,4229,4612,11569,01.200,552
2023-07-29T01:08:59,42.805,6.029,CST-1368DR,4229,4611,11567,01.201,552
2023-07-29T01:12:01,42.805,6.029,CST-1368DR,4229,4611,11569,01.200,552
2023-07-29T01:15:02,42.805,6.029,CST-1368DR,4229,4611,11567,01.201,552
2023-07-29T01:18:04,42.805,6.029,CST-1368DR,4229,4611,11567,01.201,552
2023-07-29T01:21:05,42.805,6.029,CST-1368DR,4229,4612,11571,01.199,552
2023-07-29T01:24:07,42.805,6.029,CST-1368DR,4229,4612,11569,01.200,552
2023-07-29T01:27:08,42.805,6.029,CST-1368DR,4229,4611,11567,01.201,552
2023-07-29T01:30:10,42.805,6.029,CST-1368DR,4229,4609,11562,01.202,552
2023-07-29T01:33:12,42.805,6.029,CST-1368DR,4229,4609,11562,01.202,552
2023-07-29T01:36:13,42.805,6.029,CST-1368DR,4229,4610,11565,01.201,552
2023-07-29T01:39:15,42.805,6.029,CST-1368DR,4229,4624,11601,01.189,552
2023-07-29T01:42:16,42.805,6.029,CST-1368DR,4229,4617,11582,01.195,552
2023-07-29T01:45:18,42.805,6.029,CST-1368DR,4229,4609,11564,01.202,552
2023-07-29T01:48:20,42.805,6.029,CST-1368DR,4229,4611,11567,01.201,552
2023-07-29T01:51:21,42.805,6.029,CST-1368DR,4229,4611,11567,01.201,552
2023-07-29T01:54:23,42.805,6.029,CST-1368DR,4229,4610,11565,01.201,552
2023-07-29T01:57:24,42.805,6.029,CST-1368DR,4229,4610,11566,01.201,552
2023-07-29T02:00:26,42.805,6.029,CST-1368DR,4229,4611,11567,01.201,552
2023-07-29T02:03:27,42.805,6.029,CST-1368DR,4229,4611,11567,01.201,552
2023-07-29T02:06:29,42.805,6.029,CST-1368DR,4229,4609,11563,01.202,552
2023-07-29T02:09:31,42.805,6.029,CST-1368DR,4229,4611,11567,01.201,552
2023-07-29T02:12:32,42.805,6.029,CST-1368DR,4229,4612,11570,01.200,552
2023-07-29T02:15:34,42.805,6.029,CST-1368DR,4229,4610,11565,01.201,552
2023-07-29T02:18:35,42.805,6.029,CST-1368DR,4229,4611,11569,01.200,552
2023-07-29T02:21:37,42.805,6.029,CST-1368DR,4229,4611,11569,01.200,552
2023-07-29T02:24:38,42.805,6.029,CST-1368DR,4229,4610,11565,01.201,552
2023-07-29T02:27:40,42.805,6.029,CST-1368DR,4229,4609,11564,01.202,552
2023-07-29T02:30:42,42.805,6.029,CST-1368DR,4229,4610,11566,01.201,552
2023-07-29T02:33:43,42.805,6.029,CST-1368DR,4229,4609,11564,01.202,552
2023-07-29T02:36:45,42.805,6.029,CST-1368DR,4229,4610,11565,01.201,552
2023-07-29T02:39:46,42.805,6.029,CST-1368DR,4229,4610,11565,01.201,552
2023-07-29T02:42:48,42.805,6.029,CST-1368DR,4229,4611,11567,01.201,552
2023-07-29T02:45:50,42.805,6.029,CST-1368DR,4229,4611,11568,01.200,552
2023-07-29T02:48:51,42.805,6.029,CST-1368DR,4229,4611,11567,01.201,552
2023-07-29T02:51:53,42.805,6.029,CST-1368DR,4229,4609,11563,01.202,553
2023-07-29T02:54:54,42.805,6.029,CST-1368DR,4229,4611,11567,01.201,552
2023-07-29T02:57:56,42.805,6.029,CST-1368DR,4229,4611,11567,01.201,553
2023-07-29T03:00:57,42.805,6.029,CST-1368DR,4229,4612,11569,01.200,552
2023-07-29T03:03:59,42.805,6.029,CST-1368DR,4229,4612,11570,01.200,552
2023-07-29T03:07:01,42.805,6.029,CST-1368DR,4229,4611,11569,01.200,552
2023-07-29T03:10:02,42.805,6.029,CST-1368DR,4229,4612,11570,01.200,552
2023-07-29T03:13:04,42.805,6.029,CST-1368DR,4229,4611,11567,01.201,552
2023-07-29T03:16:05,42.805,6.029,CST-1368DR,4229,4610,11565,01.201,552
2023-07-29T03:19:07,42.805,6.029,CST-1368DR,4229,4611,11567,01.201,552
2023-07-29T03:22:08,42.805,6.029,CST-1368DR,4229,4610,11566,01.201,552
2023-07-29T03:25:10,42.805,6.029,CST-1368DR,4229,4612,11569,01.200,552
2023-07-29T03:28:12,42.805,6.029,CST-1368DR,4229,4611,11567,01.201,552
2023-07-29T03:31:13,42.805,6.029,CST-1368DR,4229,4610,11566,01.201,552
2023-07-29T03:34:15,42.805,6.029,CST-1368DR,4229,4611,11567,01.201,552
2023-07-29T03:37:16,42.805,6.029,CST-1368DR,4229,4612,11569,01.200,552
2023-07-29T03:40:18,42.805,6.029,CST-1368DR,4229,4611,11567,01.201,552
2023-07-29T03:43:19,42.805,6.029,CST-1368DR,4229,4609,11563,01.202,552
2023-07-29T03:46:21,42.805,6.029,CST-1368DR,4229,4611,11569,01.200,552
2023-07-29T03:49:23,42.805,6.029,CST-1368DR,4229,4611,11567,01.201,552
2023-07-29T03:52:24,42.805,6.029,CST-1368DR,4229,4611,11567,01.201,552
2023-07-29T03:55:26,42.805,6.029,CST-1368DR,4229,4612,11569,01.200,552
2023-07-29T03:58:27,42.805,6.029,CST-1368DR,4229,4612,11570,01.200,552
2023-07-29T04:01:29,42.805,6.029,CST-1368DR,4229,4611,11568,01.200,552
2023-07-29T04:04:31,42.805,6.029,CST-1368DR,4229,4612,11570,01.200,552
2023-07-29T04:07:32,42.805,6.029,CST-1368DR,4229,4610,11565,01.201,552
2023-07-29T04:10:34,42.805,6.029,CST-1368DR,4229,4607,11558,01.204,552
2023-07-29T04:13:35,42.805,6.029,CST-1368DR,4229,4610,11566,01.201,552
2023-07-29T04:16:37,42.805,6.029,CST-1368DR,4229,4590,11515,01.219,552
2023-07-29T04:19:38,42.805,6.029,CST-1368DR,4229,4611,11569,01.200,552
2023-07-29T04:22:40,42.805,6.029,CST-1368DR,4229,4611,11567,01.201,552
2023-07-29T04:25:42,42.805,6.029,CST-1368DR,4229,4612,11569,01.200,552
2023-07-29T04:28:43,42.805,6.029,CST-1368DR,4229,4611,11567,01.201,552
2023-07-29T04:31:45,42.805,6.029,CST-1368DR,4229,4609,11563,01.202,552
2023-07-29T04:34:46,42.805,6.029,CST-1368DR,4229,4611,11567,01.201,552
2023-07-29T04:37:48,42.805,6.029,CST-1368DR,4229,4611,11567,01.201,552
2023-07-29T04:40:50,42.805,6.029,CST-1368DR,4229,4611,11567,01.201,552
2023-07-29T04:43:51,42.805,6.029,CST-1368DR,4229,4609,11562,01.202,552
2023-07-29T04:46:53,42.805,6.029,CST-1368DR,4229,4612,11570,01.200,552
2023-07-29T04:49:54,42.805,6.029,CST-1368DR,4229,4612,11571,01.199,552
2023-07-29T04:52:56,42.805,6.029,CST-1368DR,4229,4612,11570,01.200,552
2023-07-29T04:55:57,42.805,6.029,CST-1368DR,4229,4612,11571,01.199,552
2023-07-29T04:58:59,42.805,6.029,CST-1368DR,4229,4612,11569,01.200,552
2023-07-29T05:02:01,42.805,6.029,CST-1368DR,4229,4613,11572,01.199,552
2023-07-29T05:05:02,42.805,6.029,CST-1368DR,4229,4613,11572,01.199,552
2023-07-29T05:08:04,42.805,6.029,CST-1368DR,4229,4611,11567,01.201,552
2023-07-29T05:11:05,42.805,6.029,CST-1368DR,4229,4611,11567,01.201,552
2023-07-29T05:14:07,42.805,6.029,CST-1368DR,4229,4607,11558,01.204,552
2023-07-29T05:17:08,42.805,6.029,CST-1368DR,4229,4607,11558,01.204,552
2023-07-29T05:20:10,42.805,6.029,CST-1368DR,4229,4607,11557,01.204,552
2023-07-29T05:23:12,42.805,6.029,CST-1368DR,4229,4608,11561,01.203,552
2023-07-29T05:26:13,42.805,6.029,CST-1368DR,4229,4606,11555,01.205,552
2023-07-29T05:29:15,42.805,6.029,CST-1368DR,4229,4605,11553,01.205,552
2023-07-29T05:32:16,42.805,6.029,CST-1368DR,4229,4606,11554,01.205,552
2023-07-29T05:35:18,42.805,6.029,CST-1368DR,4229,4607,11559,01.203,552
2023-07-29T05:38:19,42.805,6.029,CST-1368DR,4229,4606,11555,01.205,552
2023-07-29T05:41:21,42.805,6.029,CST-1368DR,4229,4607,11558,01.204,552
2023-07-29T05:44:23,42.805,6.029,CST-1368DR,4229,4606,11555,01.205,552
2023-07-29T05:47:24,42.805,6.029,CST-1368DR,4229,4606,11554,01.205,552
2023-07-29T05:50:26,42.805,6.029,CST-1368DR,4229,4605,11553,01.205,552
2023-07-29T05:53:27,42.805,6.029,CST-1368DR,4229,4605,11552,01.206,552
2023-07-29T05:56:29,42.805,6.029,CST-1368DR,4229,4604,11549,01.207,552
2023-07-29T05:59:31,42.805,6.029,CST-1368DR,4229,4607,11557,01.204,552
2023-07-29T06:02:32,42.805,6.029,CST-1368DR,4229,4607,11557,01.204,552
2023-07-29T06:05:34,42.805,6.029,CST-1368DR,4229,4607,11557,01.204,552
2023-07-29T06:08:35,42.805,6.029,CST-1368DR,4229,4607,11557,01.204,552
2023-07-29T06:11:37,42.805,6.029,CST-1368DR,4229,4606,11555,01.205,552
2023-07-29T06:14:38,42.805,6.029,CST-1368DR,4229,4606,11555,01.205,552
2023-07-29T06:17:40,42.805,6.029,CST-1368DR,4229,4605,11553,01.205,552
2023-07-29T06:20:42,42.805,6.029,CST-1368DR,4229,4607,11557,01.204,552
2023-07-29T06:23:43,42.805,6.029,CST-1368DR,4229,4606,11555,01.205,552
2023-07-29T06:26:45,42.805,6.029,CST-1368DR,4229,4607,11557,01.204,552
2023-07-29T06:29:46,42.805,6.029,CST-1368DR,4229,4607,11558,01.204,552
2023-07-29T06:32:50,42.805,6.029,CST-1368DR,4229,4606,11555,01.205,552
2023-07-29T06:35:52,42.805,6.029,CST-1368DR,4229,4606,11555,01.205,553
2023-07-29T06:38:53,42.805,6.029,CST-1368DR,4229,4607,11557,01.204,552
2023-07-29T06:41:55,42.805,6.029,CST-1368DR,4229,4605,11553,01.205,552
2023-07-29T06:44:57,42.805,6.029,CST-1368DR,4229,4607,11559,01.203,552
2023-07-29T06:47:58,42.805,6.029,CST-1368DR,4229,4606,11554,01.205,552
2023-07-29T06:51:00,42.805,6.029,CST-1368DR,4229,4604,11550,01.206,552
2023-07-29T06:54:01,42.805,6.029,CST-1368DR,4229,4606,11554,01.205,552
2023-07-29T06:57:03,42.805,6.029,CST-1368DR,4229,4607,11557,01.204,552
2023-07-29T07:00:04,42.805,6.029,CST-1368DR,4229,4607,11557,01.204,552
2023-07-29T07:03:06,42.805,6.029,CST-1368DR,4229,4607,11557,01.204,552
2023-07-29T07:06:08,42.805,6.029,CST-1368DR,4229,4608,11559,01.203,552
2023-07-29T07:09:09,42.805,6.029,CST-1368DR,4229,4607,11558,01.204,552
2023-07-29T07:12:11,42.805,6.029,CST-1368DR,4229,4606,11555,01.205,552
2023-07-29T07:15:12,42.805,6.029,CST-1368DR,4229,4605,11552,01.206,552
2023-07-29T07:18:14,42.805,6.029,CST-1368DR,4229,4608,11561,01.203,552
2023-07-29T07:21:16,42.805,6.029,CST-1368DR,4229,4608,11560,01.203,552
2023-07-29T07:24:17,42.805,6.029,CST-1368DR,4229,4609,11564,01.202,552
2023-07-29T07:27:19,42.805,6.029,CST-1368DR,4229,4609,11563,01.202,552
2023-07-29T07:30:20,42.805,6.029,CST-1368DR,4229,4608,11559,01.203,552
2023-07-29T07:33:22,42.805,6.029,CST-1368DR,4229,4604,11549,01.207,552
2023-07-29T07:36:23,42.805,6.029,CST-1368DR,4229,4605,11553,01.205,552
2023-07-29T07:39:25,42.805,6.029,CST-1368DR,4229,4604,11551,01.206,552
2023-07-29T07:42:27,42.805,6.029,CST-1368DR,4229,4605,11553,01.205,552
2023-07-29T07:45:28,42.805,6.029,CST-1368DR,4229,4604,11551,01.206,552
2023-07-29T07:48:30,42.805,6.029,CST-1368DR,4229,4607,11558,01.204,552
2023-07-29T07:51:31,42.805,6.029,CST-1368DR,4229,4605,11553,01.205,552
2023-07-29T07:54:33,42.805,6.029,CST-1368DR,4229,4605,11552,01.206,552
2023-07-29T07:57:34,42.805,6.029,CST-1368DR,4229,4604,11550,01.206,552
2023-07-29T08:00:36,42.805,6.029,CST-1368DR,4229,4607,11557,01.204,552
2023-07-29T08:03:38,42.805,6.029,CST-1368DR,4229,4606,11554,01.205,552
2023-07-29T08:06:39,42.805,6.029,CST-1368DR,4229,4605,11553,01.205,552
2023-07-29T08:09:41,42.805,6.029,CST-1368DR,4229,4606,11555,01.205,552
2023-07-29T08:12:42,42.805,6.029,CST-1368DR,4229,4605,11552,01.206,552
2023-07-29T08:15:44,42.805,6.029,CST-1368DR,4229,4606,11555,01.205,552
2023-07-29T08:18:45,42.805,6.029,CST-1368DR,4229,4605,11553,01.205,552
2023-07-29T08:21:47,42.805,6.029,CST-1368DR,4229,4606,11555,01.205,552
2023-07-29T08:24:49,42.805,6.029,CST-1368DR,4229,4605,11552,01.206,552
2023-07-29T08:27:50,42.805,6.029,CST-1368DR,4229,4604,11551,01.206,552
2023-07-29T08:30:53,42.805,6.029,CST-1368DR,4229,4605,11553,01.205,552
2023-07-29T08:33:54,42.805,6.029,CST-1368DR,4229,4605,11553,01.205,552
2023-07-29T08:36:56,42.805,6.029,CST-1368DR,4229,4605,11552,01.206,552
2023-07-29T08:39:58,42.805,6.029,CST-1368DR,4229,4605,11552,01.206,552
2023-07-29T08:42:59,42.805,6.029,CST-1368DR,4229,4604,11550,01.206,552
2023-07-29T08:46:01,42.805,6.029,CST-1368DR,4229,4603,11548,01.207,552
2023-07-29T08:49:02,42.805,6.029,CST-1368DR,4229,4605,11552,01.206,552
2023-07-29T08:52:04,42.805,6.029,CST-1368DR,4229,4604,11550,01.206,552
2023-07-29T08:55:05,42.805,6.029,CST-1368DR,4229,4605,11552,01.206,552
2023-07-29T08:58:07,42.805,6.029,CST-1368DR,4229,4605,11552,01.206,552
2023-07-29T09:01:09,42.805,6.029,CST-1368DR,4229,4608,11560,01.203,552
2023-07-29T09:04:10,42.805,6.029,CST-1368DR,4229,4561,11442,01.244,552
2023-07-29T09:07:12,42.805,6.029,CST-1368DR,4229,4605,11553,01.205,552
2023-07-29T09:10:13,42.805,6.029,CST-1368DR,4229,4606,11555,01.205,552
2023-07-29T09:13:15,42.805,6.029,CST-1368DR,4229,4606,11555,01.205,552
2023-07-29T09:16:17,42.805,6.029,CST-1368DR,4229,4604,11550,01.206,552
2023-07-29T09:19:18,42.805,6.029,CST-1368DR,4229,4603,11548,01.207,552
2023-07-29T09:22:20,42.805,6.029,CST-1368DR,4229,4607,11557,01.204,552
2023-07-29T09:25:21,42.805,6.029,CST-1368DR,4229,4605,11553,01.205,552
2023-07-29T09:28:23,42.805,6.029,CST-1368DR,4229,4607,11557,01.204,552
2023-07-29T09:31:24,42.805,6.029,CST-1368DR,4229,4605,11553,01.205,552
2023-07-29T09:34:26,42.805,6.029,CST-1368DR,4229,4604,11550,01.206,552
2023-07-29T09:37:28,42.805,6.029,CST-1368DR,4229,4605,11552,01.206,552
2023-07-29T09:40:29,42.805,6.029,CST-1368DR,4229,4607,11557,01.204,552
2023-07-29T09:43:31,42.805,6.029,CST-1368DR,4229,4606,11555,01.205,552
2023-07-29T09:46:32,42.805,6.029,CST-1368DR,4229,4604,11549,01.207,552
2023-07-29T09:49:34,42.805,6.029,CST-1368DR,4229,4603,11548,01.207,552
2023-07-29T09:52:35,42.805,6.029,CST-1368DR,4229,4606,11555,01.205,552
2023-07-29T09:55:37,42.805,6.029,CST-1368DR,4229,4605,11552,01.206,552
2023-07-29T09:58:39,42.805,6.029,CST-1368DR,4229,4604,11550,01.206,552
2023-07-29T10:01:40,42.805,6.029,CST-1368DR,4229,4604,11550,01.206,552
2023-07-29T10:04:42,42.805,6.029,CST-1368DR,4229,4606,11555,01.205,552
2023-07-29T10:07:43,42.805,6.029,CST-1368DR,4229,4605,11553,01.205,552
2023-07-29T10:10:45,42.805,6.029,CST-1368DR,4229,4604,11550,01.206,552
2023-07-29T10:13:47,42.805,6.029,CST-1368DR,4229,4604,11550,01.206,552
2023-07-29T10:16:48,42.805,6.029,CST-1368DR,4229,4607,11559,01.203,552
2023-07-29T10:19:50,42.805,6.029,CST-1368DR,4229,4607,11557,01.204,552
2023-07-29T10:22:51,42.805,6.029,CST-1368DR,4229,4608,11560,01.203,552
2023-07-29T10:25:53,42.805,6.029,CST-1368DR,4229,4605,11553,01.205,552
2023-07-29T10:28:54,42.805,6.029,CST-1368DR,4229,4605,11553,01.205,552
2023-07-29T10:31:56,42.805,6.029,CST-1368DR,4229,4606,11554,01.205,552
2023-07-29T10:34:58,42.805,6.029,CST-1368DR,4229,4605,11552,01.206,552
2023-07-29T10:37:59,42.805,6.029,CST-1368DR,4229,4607,11557,01.204,552
2023-07-29T10:41:01,42.805,6.029,CST-1368DR,4229,4606,11555,01.205,552
2023-07-29T10:44:02,42.805,6.029,CST-1368DR,4229,4605,11553,01.205,552
2023-07-29T10:47:04,42.805,6.029,CST-1368DR,4229,4606,11554,01.205,552
2023-07-29T10:50:06,42.805,6.029,CST-1368DR,4229,4604,11549,01.207,552
2023-07-29T10:53:07,42.805,6.029,CST-1368DR,4229,4605,11552,01.206,552
2023-07-29T10:56:09,42.805,6.029,CST-1368DR,4229,4604,11551,01.206,552
2023-07-29T10:59:10,42.805,6.029,CST-1368DR,4229,4605,11552,01.206,552
2023-07-29T11:02:12,42.805,6.029,CST-1368DR,4229,4605,11553,01.205,552
2023-07-29T11:05:13,42.805,6.029,CST-1368DR,4229,4605,11553,01.205,552
2023-07-29T11:08:15,42.805,6.029,CST-1368DR,4229,4605,11552,01.206,552
2023-07-29T11:11:17,42.805,6.029,CST-1368DR,4229,4607,11559,01.203,552
2023-07-29T11:14:18,42.805,6.029,CST-1368DR,4229,4603,11548,01.207,552
2023-07-29T11:17:20,42.805,6.029,CST-1368DR,4229,4604,11550,01.206,552
2023-07-29T11:20:21,42.805,6.029,CST-1368DR,4229,4606,11554,01.205,552
2023-07-29T11:23:23,42.805,6.029,CST-1368DR,4229,4605,11552,01.206,552
2023-07-29T11:26:24,42.805,6.029,CST-1368DR,4229,4606,11554,01.205,552
2023-07-29T11:29:26,42.805,6.029,CST-1368DR,4229,4605,11552,01.206,552
2023-07-29T11:32:28,42.805,6.029,CST-1368DR,4229,4606,11555,01.205,552
2023-07-29T11:35:29,42.805,6.029,CST-1368DR,4229,4604,11551,01.206,552
2023-07-29T11:38:31,42.805,6.029,CST-1368DR,4229,4605,11553,01.205,552
2023-07-29T11:41:32,42.805,6.029,CST-1368DR,4229,4606,11555,01.205,552
2023-07-29T11:44:34,42.805,6.029,CST-1368DR,4229,4604,11549,01.207,552
2023-07-29T11:47:36,42.805,6.029,CST-1368DR,4229,4603,11548,01.207,552
2023-07-29T11:50:37,42.805,6.029,CST-1368DR,4229,4605,11552,01.206,552
2023-07-29T11:53:39,42.805,6.029,CST-1368DR,4229,4604,11550,01.206,552
2023-07-29T11:56:40,42.805,6.029,CST-1368DR,4229,4602,11546,01.208,552
2023-07-29T11:59:42,42.805,6.029,CST-1368DR,4229,4604,11550,01.206,552
2023-07-29T12:02:43,42.805,6.029,CST-1368DR,4229,4604,11550,01.206,552
2023-07-29T12:05:45,42.805,6.029,CST-1368DR,4229,4603,11547,01.207,552
2023-07-29T12:08:47,42.805,6.029,CST-1368DR,4229,4600,11541,01.210,552
2023-07-29T12:11:48,42.805,6.029,CST-1368DR,4229,4603,11548,01.207,552
2023-07-29T12:14:50,42.805,6.029,CST-1368DR,4229,4602,11545,01.208,552
2023-07-29T12:17:51,42.805,6.029,CST-1368DR,4229,4597,11533,01.212,552
2023-07-29T12:20:53,42.805,6.029,CST-1368DR,4229,4600,11540,01.210,552
2023-07-29T12:23:54,42.805,6.029,CST-1368DR,4229,4601,11543,01.209,552
2023-07-29T12:26:56,42.805,6.029,CST-1368DR,4229,4603,11548,01.207,552
2023-07-29T12:29:58,42.805,6.029,CST-1368DR,4229,4603,11548,01.207,552
2023-07-29T12:32:59,42.805,6.029,CST-1368DR,4229,4603,11548,01.207,552
2023-07-29T12:36:01,42.805,6.029,CST-1368DR,4229,4604,11549,01.207,552
2023-07-29T12:39:02,42.805,6.029,CST-1368DR,4229,4604,11549,01.207,552
2023-07-29T12:42:04,42.805,6.029,CST-1368DR,4229,4602,11546,01.208,552
2023-07-29T12:45:06,42.805,6.029,CST-1368DR,4229,4605,11552,01.206,552
2023-07-29T12:48:07,42.805,6.029,CST-1368DR,4229,4604,11550,01.206,552
2023-07-29T12:51:09,42.805,6.029,CST-1368DR,4229,4605,11552,01.206,552
2023-07-29T12:54:10,42.805,6.029,CST-1368DR,4229,4602,11546,01.208,552
2023-07-29T12:57:12,42.805,6.029,CST-1368DR,4229,4603,11548,01.207,552
2023-07-29T13:00:13,42.805,6.029,CST-1368DR,4229,4600,11540,01.210,552
2023-07-29T13:03:15,42.805,6.029,CST-1368DR,4229,4601,11543,01.209,552
2023-07-29T13:06:17,42.805,6.029,CST-1368DR,4229,4602,11545,01.208,552
2023-07-29T13:09:18,42.805,6.029,CST-1368DR,4229,4602,11545,01.208,552
2023-07-29T13:12:20,42.805,6.029,CST-1368DR,4229,4602,11544,01.209,552
2023-07-29T13:15:21,42.805,6.029,CST-1368DR,4229,4590,11515,01.219,552
2023-07-29T13:18:23,42.805,6.029,CST-1368DR,4229,4593,11523,01.216,552
2023-07-29T13:21:24,42.805,6.029,CST-1368DR,4229,4595,11528,01.214,552
2023-07-29T13:24:26,42.805,6.029,CST-1368DR,4229,4598,11534,01.212,552
2023-07-29T13:27:28,42.805,6.029,CST-1368DR,4229,4607,11559,01.203,552
2023-07-29T13:30:29,42.805,6.029,CST-1368DR,4229,4606,11555,01.205,552
2023-07-29T13:33:31,42.805,6.029,CST-1368DR,4229,4602,11546,01.208,552
2023-07-29T13:36:32,42.805,6.029,CST-1368DR,4229,4604,11551,01.206,552
2023-07-29T13:39:34,42.805,6.029,CST-1368DR,4229,4605,11553,01.205,552
2023-07-29T13:42:36,42.805,6.029,CST-1368DR,4229,4607,11557,01.204,552
2023-07-29T13:45:37,42.805,6.029,CST-1368DR,4229,4608,11560,01.203,552
2023-07-29T13:48:39,42.805,6.029,CST-1368DR,4229,4608,11560,01.203,552
2023-07-29T13:51:40,42.805,6.029,CST-1368DR,4229,4607,11559,01.203,552
2023-07-29T13:54:42,42.805,6.029,CST-1368DR,4229,4608,11560,01.203,552
2023-07-29T13:57:43,42.805,6.029,CST-1368DR,4229,4605,11552,01.206,552
2023-07-29T14:00:45,42.805,6.029,CST-1368DR,4229,4606,11555,01.205,552
2023-07-29T14:03:47,42.805,6.029,CST-1368DR,4229,4607,11558,01.204,552
2023-07-29T14:06:48,42.805,6.029,CST-1368DR,4229,4604,11550,01.206,552
2023-07-29T14:09:50,42.805,6.029,CST-1368DR,4229,4609,11563,01.202,552
2023-07-29T14:12:51,42.805,6.029,CST-1368DR,4229,4608,11560,01.203,552
2023-07-29T14:15:53,42.805,6.029,CST-1368DR,4229,4608,11560,01.203,552
2023-07-29T14:18:54,42.805,6.029,CST-1368DR,4229,4607,11559,01.203,552
2023-07-29T14:21:56,42.805,6.029,CST-1368DR,4229,4608,11561,01.203,552
2023-07-29T14:24:58,42.805,6.029,CST-1368DR,4229,4608,11561,01.203,552
2023-07-29T14:27:59,42.805,6.029,CST-1368DR,4229,4606,11554,01.205,552
2023-07-29T14:31:02,42.805,6.029,CST-1368DR,4229,4609,11564,01.202,552
2023-07-29T14:34:04,42.805,6.029,CST-1368DR,4229,4609,11562,01.202,552
2023-07-29T14:37:05,42.805,6.029,CST-1368DR,4229,4606,11555,01.205,552
2023-07-29T14:40:07,42.805,6.029,CST-1368DR,4228,4609,11565,01.201,552
2023-07-29T14:43:08,42.805,6.029,CST-1368DR,4229,4609,11562,01.202,552
2023-07-29T14:46:10,42.805,6.029,CST-1368DR,4229,4608,11561,01.203,552
2023-07-29T14:49:12,42.805,6.029,CST-1368DR,4228,4608,11563,01.202,552
2023-07-29T14:52:13,42.805,6.029,CST-1368DR,4228,4609,11564,01.202,552
2023-07-29T14:55:15,42.805,6.029,CST-1368DR,4229,4610,11565,01.201,552
2023-07-29T14:58:16,42.805,6.029,CST-1368DR,4229,4608,11560,01.203,552
2023-07-29T15:01:18,42.805,6.029,CST-1368DR,4229,4610,11565,01.201,552
2023-07-29T15:04:20,42.805,6.029,CST-1368DR,4229,4608,11560,01.203,552
2023-07-29T15:07:21,42.805,6.029,CST-1368DR,4228,4608,11563,01.202,552
2023-07-29T15:10:23,42.805,6.029,CST-1368DR,4229,4608,11560,01.203,552
2023-07-29T15:13:24,42.805,6.029,CST-1368DR,4228,4614,11577,01.197,552
2023-07-29T15:16:26,42.805,6.029,CST-1368DR,4229,4610,11565,01.201,552
2023-07-29T15:19:27,42.805,6.029,CST-1368DR,4229,4608,11560,01.203,552
2023-07-29T15:22:29,42.805,6.029,CST-1368DR,4229,4608,11561,01.203,552
2023-07-29T15:25:31,42.805,6.029,CST-1368DR,4229,4628,11610,01.186,552
2023-07-29T15:28:32,42.805,6.029,CST-1368DR,4229,4627,11607,01.187,552
2023-07-29T15:31:34,42.805,6.029,CST-1368DR,4229,4627,11608,01.186,552
2023-07-29T15:34:35,42.805,6.029,CST-1368DR,4229,4628,11610,01.186,552
2023-07-29T15:37:37,42.805,6.029,CST-1368DR,4229,4627,11607,01.187,552
2023-07-29T15:40:38,42.805,6.029,CST-1368DR,4229,4628,11609,01.186,552
2023-07-29T15:43:40,42.805,6.029,CST-1368DR,4229,4627,11608,01.186,552
2023-07-29T15:46:42,42.805,6.029,CST-1368DR,4229,4627,11609,01.186,552
2023-07-29T15:49:43,42.805,6.029,CST-1368DR,4229,4628,11610,01.186,552
2023-07-29T15:52:45,42.805,6.029,CST-1368DR,4229,4629,11612,01.185,552
2023-07-29T15:55:46,42.805,6.029,CST-1368DR,4229,4628,11611,01.185,552
2023-07-29T15:58:48,42.805,6.029,CST-1368DR,4229,4628,11611,01.185,552
2023-07-29T16:01:50,42.805,6.029,CST-1368DR,4229,4628,11611,01.185,552
2023-07-29T16:04:51,42.805,6.029,CST-1368DR,4229,4629,11612,01.185,552
2023-07-29T16:07:53,42.805,6.029,CST-1368DR,4229,4628,11611,01.185,552
2023-07-29T16:10:54,42.805,6.029,CST-1368DR,4229,4629,11612,01.185,552
2023-07-29T16:13:56,42.805,6.029,CST-1368DR,4229,4628,11611,01.185,552
2023-07-29T16:16:57,42.805,6.029,CST-1368DR,4229,4629,11612,01.185,552
2023-07-29T16:19:59,42.805,6.029,CST-1368DR,4229,4627,11609,01.186,552
2023-07-29T16:23:01,42.805,6.029,CST-1368DR,4229,4629,11612,01.185,552
2023-07-29T16:26:02,42.805,6.029,CST-1368DR,4229,4628,11611,01.185,552
2023-07-29T16:29:04,42.805,6.029,CST-1368DR,4229,4628,11611,01.185,552
2023-07-29T16:32:05,42.805,6.029,CST-1368DR,4229,4628,11611,01.185,552
2023-07-29T16:35:07,42.805,6.029,CST-1368DR,4229,4627,11607,01.187,552
2023-07-29T16:38:08,42.805,6.029,CST-1368DR,4229,4628,11610,01.186,552